Location: Zapote
(9.9191°N, 84.0597°W)
Time: 16:27:26
(UTC-06:00)

Courier 1B Rocket - Pass Details

Date: 07 March 2021
Orbit: 920 x 1202 km, 28.2° (Epoch: 11 April)

Event Time Altitude Azimuth Distance (km) Brightness Sun altitude
Rises 19:12:07 0° 299° (WNW) 4,037 9.2 -21.7°
Reaches altitude 10° 19:14:55 10° 300° (WNW) 3,097 8.4 -22.4°
Maximum altitude 19:22:43 83° 28° (NNE) 1,207 5.3 -24.4°
Enters shadow 19:25:24 46° 111° (ESE) 1,562 5.6 -25.0°
